sat.trackr.live / text

‹ back to catalog

STARLINK-32446

NORAD 61262 · 2024-175V

PAYLOAD ACTIVE UNKNOWN

§ Identity

Operator
Country
US
Launch date
2024-09-25
Launch site
AFWTR
Launch vehicle
Mass (kg)
RCS (m²)

Purposes: comms

External: N2YO · Heavens-Above · Gunter

§ Orbital elements

Epoch: 2026-05-24T23:01:53.181120Z

Period
93.85 min
Inclination
53.1609°
Eccentricity
0.0001237
Mean motion
15.34412768 rev/d
Perigee alt
461.8 km
Apogee alt
463.5 km
Semi-major
6,840.8 km
B*
-2.8528e-4
RAAN
199.5802°
Arg perigee
77.4128°
Mean anomaly
282.7013°
Rev number
9,313

§ Raw data

STARLINK-324461 61262U 24175V   26144.95964330 -.00010006  00000+0 -28528-3 0  99982 61262  53.1609 199.5802 0001237  77.4128 282.7013 15.34412768 93139

JSON: /api/v1/satellites/61262 · /tle

For live sub-satellite position, see the globe view (requires WebGL).

§ Visibility from observer

Set your observer location to see the next 7 days of passes ≥ 10°. The values pass through the URL so the page stays shareable.

No JS? Fill the form by hand. The geolocation button needs JavaScript.